TimeMDT,TemperatureF,Dew PointF,Humidity,Sea Level PressureIn,VisibilityMPH,Wind Direction,Wind SpeedMPH,Gust SpeedMPH,PrecipitationIn,Events,Conditions,WindDirDegrees,DateUTC
12:15 AM,48.2,24.8,40,30.37,10.0,Calm,Calm,-,N/A,,Clear,0,2013-05-13 06:15:00
12:35 AM,46.4,21.2,37,30.37,10.0,Calm,Calm,-,N/A,,Clear,0,2013-05-13 06:35:00
12:55 AM,44.6,21.2,39,30.37,10.0,NNE,8.1,-,N/A,,Clear,30,2013-05-13 06:55:00
1:15 AM,44.6,24.8,46,30.37,10.0,NE,9.2,-,N/A,,Clear,50,2013-05-13 07:15:00
1:35 AM,48.2,24.8,40,30.37,10.0,ENE,5.8,-,N/A,,Clear,60,2013-05-13 07:35:00
1:55 AM,46.4,24.8,43,30.37,10.0,Calm,Calm,-,N/A,,Clear,0,2013-05-13 07:55:00
2:15 AM,44.6,23.0,43,30.37,10.0,NE,3.5,-,N/A,,Clear,50,2013-05-13 08:15:00
2:35 AM,46.4,24.8,43,30.37,10.0,Calm,Calm,-,N/A,,Clear,0,2013-05-13 08:35:00
2:55 AM,42.8,21.2,42,30.37,10.0,North,5.8,-,N/A,,Clear,360,2013-05-13 08:55:00
3:15 AM,41.0,21.2,45,30.37,10.0,North,5.8,-,N/A,,Clear,360,2013-05-13 09:15:00
3:35 AM,39.2,21.2,49,30.38,10.0,North,8.1,-,N/A,,Clear,360,2013-05-13 09:35:00
3:55 AM,37.4,19.4,48,30.38,10.0,NNE,8.1,-,N/A,,Clear,20,2013-05-13 09:55:00
4:15 AM,39.2,19.4,45,30.38,10.0,NNE,8.1,-,N/A,,Clear,20,2013-05-13 10:15:00
4:35 AM,39.2,19.4,45,30.39,10.0,North,5.8,-,N/A,,Clear,10,2013-05-13 10:35:00
4:55 AM,37.4,19.4,48,30.39,10.0,NNE,6.9,-,N/A,,Clear,20,2013-05-13 10:55:00
5:15 AM,39.2,19.4,45,30.39,10.0,NNE,5.8,-,N/A,,Clear,20,2013-05-13 11:15:00
5:35 AM,37.4,19.4,48,30.40,10.0,North,8.1,-,N/A,,Clear,10,2013-05-13 11:35:00
5:55 AM,37.4,19.4,48,30.41,10.0,North,5.8,-,N/A,,Clear,10,2013-05-13 11:55:00
6:15 AM,35.6,17.6,48,30.41,10.0,North,4.6,-,N/A,,Clear,10,2013-05-13 12:15:00
6:35 AM,37.4,19.4,48,30.42,10.0,North,5.8,-,N/A,,Clear,360,2013-05-13 12:35:00
6:55 AM,41.0,21.2,45,30.42,10.0,Calm,Calm,-,N/A,,Clear,0,2013-05-13 12:55:00
7:15 AM,44.6,24.8,46,30.42,10.0,Calm,Calm,-,N/A,,Clear,0,2013-05-13 13:15:00
7:35 AM,48.2,26.6,43,30.43,10.0,North,4.6,-,N/A,,Clear,360,2013-05-13 13:35:00
7:55 AM,48.2,26.6,43,30.43,10.0,North,5.8,-,N/A,,Clear,350,2013-05-13 13:55:00
8:15 AM,51.8,26.6,38,30.43,10.0,NNW,5.8,-,N/A,,Clear,340,2013-05-13 14:15:00
8:35 AM,55.4,28.4,36,30.43,10.0,North,5.8,-,N/A,,Clear,360,2013-05-13 14:35:00
8:55 AM,57.2,28.4,33,30.43,10.0,NNW,4.6,-,N/A,,Clear,340,2013-05-13 14:55:00
9:15 AM,60.8,30.2,31,30.43,10.0,Calm,Calm,-,N/A,,Clear,0,2013-05-13 15:15:00
9:35 AM,62.6,30.2,30,30.42,10.0,Calm,Calm,-,N/A,,Clear,0,2013-05-13 15:35:00
9:55 AM,64.4,30.2,28,30.42,10.0,SSW,3.5,-,N/A,,Clear,200,2013-05-13 15:55:00
10:15 AM,66.2,30.2,26,30.41,10.0,West,4.6,-,N/A,,Clear,280,2013-05-13 16:15:00
10:35 AM,66.2,30.2,26,30.40,10.0,SW,4.6,-,N/A,,Clear,220,2013-05-13 16:35:00
10:55 AM,69.8,30.2,23,30.40,10.0,West,5.8,-,N/A,,Clear,270,2013-05-13 16:55:00
11:15 AM,69.8,30.2,23,30.39,10.0,Calm,Calm,-,N/A,,Clear,0,2013-05-13 17:15:00
11:35 AM,71.6,30.2,22,30.38,10.0,Calm,Calm,-,N/A,,Clear,0,2013-05-13 17:35:00
11:55 AM,73.4,30.2,20,30.37,10.0,NW,3.5,-,N/A,,Clear,320,2013-05-13 17:55:00
12:15 PM,71.6,30.2,22,30.36,10.0,WNW,3.5,-,N/A,,Clear,300,2013-05-13 18:15:00
12:35 PM,73.4,30.2,20,30.36,10.0,NNW,5.8,-,N/A,,Clear,340,2013-05-13 18:35:00
12:55 PM,75.2,30.2,19,30.35,10.0,NW,3.5,-,N/A,,Clear,320,2013-05-13 18:55:00
1:15 PM,75.2,28.4,18,30.34,10.0,NNE,3.5,-,N/A,,Clear,20,2013-05-13 19:15:00
1:35 PM,75.2,28.4,18,30.33,10.0,NNW,3.5,-,N/A,,Partly Cloudy,340,2013-05-13 19:35:00
2:35 PM,77.0,28.4,17,30.31,10.0,Calm,Calm,-,N/A,,Partly Cloudy,0,2013-05-13 20:35:00
2:55 PM,75.2,26.6,17,30.30,10.0,SW,5.8,-,N/A,,Clear,230,2013-05-13 20:55:00
3:15 PM,77.0,26.6,16,30.30,10.0,East,3.5,-,N/A,,Clear,80,2013-05-13 21:15:00
3:35 PM,75.2,28.4,18,30.30,10.0,WSW,15.0,-,N/A,,Scattered Clouds,240,2013-05-13 21:35:00
3:55 PM,75.2,28.4,18,30.30,10.0,NW,23.0,-,N/A,,Overcast,310,2013-05-13 21:55:00
4:15 PM,75.2,30.2,19,30.30,10.0,NNW,11.5,-,N/A,,Overcast,330,2013-05-13 22:15:00
4:35 PM,73.4,28.4,19,30.31,10.0,North,10.4,-,N/A,,Overcast,10,2013-05-13 22:35:00
4:55 PM,71.6,30.2,22,30.31,10.0,NE,6.9,-,N/A,,Overcast,40,2013-05-13 22:55:00
5:35 PM,69.8,30.2,23,30.32,10.0,West,15.0,-,N/A,,Mostly Cloudy,280,2013-05-13 23:35:00
6:15 PM,66.2,33.8,30,30.33,10.0,North,5.8,-,N/A,,Mostly Cloudy,10,2013-05-14 00:15:00
6:35 PM,68.0,32.0,26,30.32,10.0,NW,4.6,16.1,N/A,,Clear,310,2013-05-14 00:35:00
6:55 PM,66.2,32.0,28,30.32,10.0,ENE,8.1,-,N/A,,Partly Cloudy,60,2013-05-14 00:55:00
7:15 PM,66.2,33.8,30,30.31,10.0,ENE,11.5,-,N/A,,Mostly Cloudy,60,2013-05-14 01:15:00
7:35 PM,64.4,33.8,32,30.31,10.0,NE,9.2,-,N/A,,Overcast,50,2013-05-14 01:35:00
7:55 PM,64.4,33.8,32,30.32,10.0,ENE,10.4,-,N/A,,Overcast,70,2013-05-14 01:55:00
8:15 PM,62.6,33.8,34,30.32,10.0,East,9.2,-,N/A,,Scattered Clouds,90,2013-05-14 02:15:00
8:35 PM,59.0,32.0,36,30.32,10.0,East,5.8,-,N/A,,Clear,80,2013-05-14 02:35:00
8:55 PM,60.8,32.0,34,30.32,10.0,ENE,8.1,-,N/A,,Clear,60,2013-05-14 02:55:00
9:15 PM,59.0,30.2,34,30.32,10.0,ENE,6.9,-,N/A,,Clear,70,2013-05-14 03:15:00
9:35 PM,55.4,28.4,36,30.32,10.0,ESE,6.9,-,N/A,,Clear,110,2013-05-14 03:35:00
9:55 PM,53.6,28.4,38,30.33,10.0,ENE,8.1,-,N/A,,Clear,70,2013-05-14 03:55:00
10:15 PM,53.6,30.2,41,30.33,10.0,ENE,9.2,-,N/A,,Clear,70,2013-05-14 04:15:00
10:35 PM,53.6,30.2,41,30.33,10.0,ENE,8.1,-,N/A,,Clear,70,2013-05-14 04:35:00
10:55 PM,51.8,28.4,41,30.33,10.0,East,8.1,-,N/A,,Clear,80,2013-05-14 04:55:00
11:15 PM,53.6,30.2,41,30.33,10.0,ENE,8.1,-,N/A,,Clear,70,2013-05-14 05:15:00
11:35 PM,51.8,28.4,41,30.32,10.0,NE,4.6,-,N/A,,Clear,40,2013-05-14 05:35:00
11:55 PM,48.2,26.6,43,30.32,10.0,NNE,9.2,-,N/A,,Clear,30,2013-05-14 05:55:00